[[{"header":{"parameterUnit":"m.s-1","parameterCategory":1,"la1":30.2991,"la2":30.254,"lo1":-89.0895,"lo2":-89.0444,"dy":0.0017,"dx":0.0017,"nx":28,"ny":28,"refTime":"2023-04-08T21:00:00:Z","depth":0,"parameterNumber":2,"parameterNumberName":"U-component_of_WINDS"},"data":[0,0,0,0,0,0,0,0,0,0,0,0,0,0,0,0,0,0,0,0,0,0,0,0,0,0,0,0,0,0,0,0,0,0,0,0,0,0,0,0,0,0,0,0,0,0,0,0,0,0,0,0,0,0,0,0,0,0,-4.1533,-4.1534,0,-4.1586,-4.1587,-4.1587,-4.1511,-4.1508,-4.1506,-4.1503,-4.1558,-4.1562,-4.1566,0,0,0,0,0,0,0,0,0,0,0,0,0,-4.1367,-4.1371,-4.1533,-4.1534,-4.1535,-4.1586,-4.1587,-4.1588,-4.1511,-4.1508,-4.1505,-4.1502,-4.1557,-4.1561,-4.1566,0,0,0,0,0,0,0,0,0,0,0,0,0,-4.1432,-4.1372,-4.1533,-4.1503,-4.1501,-4.1586,-4.1587,-4.1588,-4.1512,-4.1508,-4.1504,-4.15,-4.1555,-4.1561,-4.1567,-4.1685,0,0,-4.1585,-4.1588,0,0,0,0,0,0,0,0,-4.1428,-4.1438,-4.1507,-4.1505,-4.1503,-4.1538,-4.1548,-4.162,-4.1513,-4.1508,-4.1503,-4.1498,-4.1555,-4.156,-4.1579,-4.1687,-4.169,-4.1585,-4.1589,-4.1592,-4.1593,0,0,0,0,0,0,0,-4.1424,-4.1435,-4.1554,-4.1508,-4.1505,-4.1487,-4.1492,-4.1562,-4.1553,-4.1508,-4.1503,-4.151,-4.1553,-4.1574,-4.158,-4.169,-4.1585,-4.1591,-4.1594,-4.1597,-4.1898,-4.1903,0,0,0,0,0,0,-4.1423,-4.1432,-4.1553,-4.1556,-4.1455,-4.1493,-4.1498,-4.1531,-4.1552,-4.1552,-4.1513,-4.1506,-4.1565,-4.1573,-4.1582,-4.1722,-4.1592,-4.1597,-4.1601,-4.1894,-4.1899,-4.1904,0,0,0,0,0,0,-4.142,-4.1434,-4.155,-4.1493,-4.1506,-4.15,-4.1537,-4.1534,-4.1555,-4.1556,-4.1554,-4.1536,-4.1562,-4.1573,-4.166,-4.1723,-4.16,-4.1605,-4.1889,-4.1896,-4.1902,-4.2003,0,0,0,0,0,0,-4.1415,-4.1434,-4.1478,-4.1494,-4.1509,-4.1628,-4.1541,-4.1538,-4.1565,-4.1556,-4.1577,-4.1577,-4.156,-4.1651,-4.1666,-4.1729,-4.161,-4.1883,-4.1892,-4.19,-4.1994,-4.2012,-4.2028,0,0,0,0,0,-4.141,-4.1505,-4.1481,-4.1496,-4.1565,-4.1632,-4.164,-4.1619,-4.157,-4.1616,-4.1616,-4.1576,-4.1713,-4.1661,-4.1676,-4.1742,-4.1879,-4.1889,-4.1899,-4.1986,-4.2009,-4.2028,0,0,0,0,0,0,-4.1497,-4.1506,-4.148,-4.1583,-4.1607,-4.1619,-4.1675,-4.1643,-4.1682,-4.1672,-4.1644,-4.1649,-4.1742,-4.175,-4.1692,-4.1858,-4.1788,-4.1802,-4.1849,-4.187,-4.1887,-4.1884,-4.1615,0,0,0,0,0,-4.1528,-4.1581,-4.1586,-4.1677,-4.169,-4.1681,-4.1709,-4.169,-4.1714,-4.1724,-4.1731,-4.1757,-4.1805,-4.1838,-4.1883,-4.1994,-4.1998,-4.2047,-4.2064,-4.2078,-4.2091,-4.2151,-4.2173,-4.1937,-4.1937,-4.1937,0,0,-4.1593,-4.1605,-4.164,-4.1695,-4.1711,-4.1768,-4.169,-4.1752,-4.1794,-4.1734,-4.1816,-4.1823,-4.1849,-4.1949,-4.1993,-4.1958,-4.2156,-4.2091,-4.2102,-4.2107,-4.2164,-4.2186,-4.2206,-4.1944,-4.1943,-4.1941,0,0,-4.1741,-4.1755,-4.1832,-4.185,-4.1876,-4.1869,-4.1887,-4.1904,-4.1906,-4.1988,-4.1944,-4.1993,-4.2077,-4.2098,-4.2119,-4.2275,-4.224,-4.229,-4.2379,-4.2438,-4.2457,-4.2473,-4.253,-4.2551,-4.2302,-4.2302,-4.2303,0,-4.1819,-4.1902,-4.1876,-4.1942,-4.1967,-4.1915,-4.1993,-4.2012,-4.2052,-4.2071,-4.2031,-4.2136,-4.2149,-4.2254,-4.2292,-4.2311,-4.2332,-4.2288,-4.2456,-4.2473,-4.2487,-4.2541,-4.2563,-4.2308,-4.2308,-4.2307,-4.2307,0,-4.1997,-4.2055,-4.2114,-4.2153,-4.2185,-4.2257,-4.2243,-4.2278,-4.2257,-4.2254,-4.2339,-4.2353,-4.2401,-4.2424,-4.2403,-4.2526,-4.2504,-4.2461,-4.2391,-4.2517,-4.2567,-4.2587,-4.2317,-4.2315,-4.2313,-4.2312,0,0,-4.2202,-4.2226,-4.2248,-4.2266,-4.229,-4.2335,-4.2404,-4.245,-4.2482,-4.251,-4.2569,-4.2641,-4.2602,-4.2626,-4.2607,-4.2659,-4.2783,-4.261,-4.261,-4.2643,-4.292,-4.2954,-4.2978,-4.2759,-4.2763,-4.2766,-4.2919,0,-4.235,-4.2471,-4.2449,-4.2566,-4.262,-4.2571,-4.2631,-4.2653,-4.2653,-4.2698,-4.2697,-4.2749,-4.2693,-4.2707,-4.2756,-4.2758,-4.2839,-4.2746,-4.2814,-4.2817,-4.2811,-4.3004,-4.3039,-4.3182,-4.2938,-4.2941,-4.2943,0,-4.254,-4.2576,-4.2698,-4.2715,-4.2736,-4.2791,-4.2832,-4.2876,-4.29,-4.2895,-4.2923,-4.2895,-4.2965,-4.2892,-4.2989,-4.2926,-4.2952,-4.2957,-4.2962,-4.2969,-4.2889,-4.3017,-4.3227,-4.325,-4.2974,-4.2971,-4.2969,0,-4.2679,-4.2758,-4.2841,-4.2858,-4.2879,-4.2919,-4.2929,-4.2949,-4.2978,-4.3013,-4.3032,-4.3075,-4.3099,-4.3134,-4.3118,-4.3066,-4.3218,-4.3144,-4.3217,-4.3218,-4.3252,-4.3251,-4.3471,-4.3267,-4.3267,-4.3266,-4.3266,0,-4.2848,-4.2926,-4.2904,-4.2956,-4.3041,-4.3016,-4.3101,-4.3106,-4.3124,-4.3176,-4.3135,-4.3185,-4.316,-4.3209,-4.3196,-4.3279,-4.3289,-4.3289,-4.3285,-4.3293,-4.3294,-4.3311,-4.3302,-4.3272,-4.3271,-4.327,-4.3269,0,-4.3019,-4.3008,-4.3096,-4.3108,-4.3113,-4.3176,-4.3186,-4.3235,-4.323,-4.3297,-4.3311,-4.3305,-4.3359,-4.3346,-4.3406,-4.3398,-4.3502,-4.3485,-4.3494,-4.3491,-4.3565,-4.3559,-4.3806,-4.3838,-4.3612,-4.3614,-4.3616,0,-4.3128,-4.3187,-4.3205,-4.3237,-4.3251,-4.3302,-4.3332,-4.3309,-4.3341,-4.3373,-4.3418,-4.3469,-4.3508,-4.3598,-4.3599,-4.3644,-4.3629,-4.3712,-4.3636,-4.3643,-4.3632,-4.363,-4.3636,-4.3728,-4.3731,-4.3733,-4.3735,0,-4.3324,-4.3316,-4.336,-4.3402,-4.3438,-4.3471,-4.3499,-4.3527,-4.3507,-4.3545,-4.36,-4.3631,-4.3692,-4.3744,-4.3785,-4.3796,-4.3763,-4.3759,-4.3778,-4.3788,-4.3792,-4.3793,-4.3538,-4.3754,-4.3752,-4.375,-4.3749,-4.3749,-4.3469,-4.3518,-4.3539,-4.359,-4.3608,-4.3636,-4.3683,-4.3684,-4.3729,-4.3777,-4.3761,-4.3824,-4.3847,-4.3899,-4.3916,-4.3965,-4.3934,-4.3962,-4.3969,-4.3977,-4.3987,-4.3783,-4.3972,-4.3972,-4.3971,-4.3971,-4.3971,0,-4.3664,-4.3674,-4.3721,-4.3762,-4.3802,-4.3766,-4.3795,-4.3831,-4.3888,-4.3911,-4.3951,-4.4015,-4.4064,-4.4069,-4.4116,-4.4155,-4.4141,-4.4168,-4.4166,-4.4169,-4.4012,-4.3991,-4.4179,-4.4179,-4.4179,-4.4178,-4.4178,-4.4178,-4.377,-4.3853,-4.3847,-4.3938,-4.3948,-4.401,-4.403,-4.4056,-4.4075,-4.4148,-4.4189,-4.4191,-4.4207,-4.4255,-4.4299,-4.4299,-4.4319,-4.4353,-4.4347,-4.4201,-4.418,-4.416,-4.414,-4.4357,-4.4357,-4.4501,-4.4502,-4.4503]},{"header":{"parameterUnit":"m.s-1","parameterCategory":1,"la1":30.2991,"la2":30.254,"lo1":-89.0895,"lo2":-89.0444,"dy":0.0017,"dx":0.0017,"nx":28,"ny":28,"refTime":"2023-04-08T21:00:00:Z","depth":0,"parameterNumber":3,"parameterNumberName":"V-component_of_WINDS"},"data":[0,0,0,0,0,0,0,0,0,0,0,0,0,0,0,0,0,0,0,0,0,0,0,0,0,0,0,0,0,0,0,0,0,0,0,0,0,0,0,0,0,0,0,0,0,0,0,0,0,0,0,0,0,0,0,0,0,0,-3.3659,-3.366,0,-3.3745,-3.3746,-3.3747,-3.3727,-3.3725,-3.3723,-3.3722,-3.3813,-3.3817,-3.382,0,0,0,0,0,0,0,0,0,0,0,0,0,-3.3477,-3.3481,-3.3659,-3.366,-3.3661,-3.3745,-3.3746,-3.3748,-3.3727,-3.3725,-3.3723,-3.3721,-3.3811,-3.3816,-3.3821,0,0,0,0,0,0,0,0,0,0,0,0,0,-3.3559,-3.3482,-3.3659,-3.3661,-3.3662,-3.3745,-3.3746,-3.3748,-3.3727,-3.3725,-3.3722,-3.372,-3.381,-3.3816,-3.3821,-3.3909,0,0,-3.384,-3.3842,0,0,0,0,0,0,0,0,-3.3554,-3.3566,-3.3659,-3.3661,-3.3662,-3.3723,-3.3716,-3.3802,-3.3728,-3.3703,-3.3722,-3.3719,-3.3785,-3.3793,-3.3815,-3.3913,-3.3917,-3.384,-3.3844,-3.3846,-3.3848,0,0,0,0,0,0,0,-3.3549,-3.3562,-3.3693,-3.3661,-3.3662,-3.3658,-3.3667,-3.3732,-3.3757,-3.3705,-3.3703,-3.3714,-3.3785,-3.3809,-3.3817,-3.3918,-3.384,-3.3845,-3.3849,-3.3851,-3.4092,-3.4095,0,0,0,0,0,0,-3.3542,-3.3557,-3.369,-3.3696,-3.3601,-3.3663,-3.3673,-3.3706,-3.3756,-3.3761,-3.3716,-3.3712,-3.38,-3.381,-3.382,-3.3925,-3.3846,-3.3852,-3.3855,-3.4089,-3.4093,-3.4096,0,0,0,0,0,0,-3.3538,-3.3554,-3.3687,-3.3626,-3.3643,-3.3669,-3.3706,-3.3709,-3.3732,-3.3764,-3.3769,-3.3735,-3.3798,-3.3811,-3.3886,-3.3928,-3.3855,-3.386,-3.4086,-3.409,-3.4094,-3.4137,0,0,0,0,0,0,-3.3533,-3.3553,-3.3586,-3.3627,-3.3646,-3.3752,-3.3708,-3.3712,-3.3743,-3.3739,-3.3784,-3.3789,-3.3797,-3.3878,-3.3892,-3.3935,-3.3865,-3.4082,-3.4088,-3.4093,-3.4132,-3.4142,-3.415,0,0,0,0,0,-3.3526,-3.3595,-3.3588,-3.3604,-3.3688,-3.3754,-3.3765,-3.3773,-3.3746,-3.378,-3.38,-3.3788,-3.3921,-3.3885,-3.3902,-3.3947,-3.408,-3.4086,-3.4092,-3.4128,-3.414,-3.415,0,0,0,0,0,0,-3.3559,-3.36,-3.3593,-3.3677,-3.3712,-3.3751,-3.3794,-3.3786,-3.383,-3.3825,-3.3833,-3.3843,-3.392,-3.3941,-3.3901,-3.4034,-3.3996,-3.4006,-3.4018,-3.403,-3.4039,-3.4033,-3.387,0,0,0,0,0,-3.3576,-3.3626,-3.3659,-3.373,-3.3748,-3.3768,-3.3797,-3.3799,-3.3837,-3.3852,-3.3878,-3.3915,-3.3965,-3.3998,-3.4046,-3.4134,-3.4144,-3.4173,-3.4182,-3.419,-3.4199,-3.4247,-3.426,-3.4116,-3.4116,-3.4116,0,0,-3.3611,-3.364,-3.3671,-3.3737,-3.3765,-3.3817,-3.3781,-3.3837,-3.3876,-3.3861,-3.3933,-3.3953,-3.3996,-3.4077,-3.4115,-3.4097,-3.424,-3.4198,-3.4204,-3.4209,-3.4255,-3.4268,-3.428,-3.4121,-3.412,-3.4119,0,0,-3.3703,-3.3729,-3.3791,-3.3819,-3.3861,-3.3874,-3.3888,-3.3928,-3.3941,-3.4013,-3.4003,-3.4049,-3.4135,-3.4166,-3.4192,-3.4294,-3.4284,-3.4309,-3.4359,-3.4405,-3.4417,-3.4427,-3.4464,-3.4477,-3.4317,-3.4318,-3.4318,0,-3.3742,-3.382,-3.3824,-3.3882,-3.3911,-3.3898,-3.3961,-3.3988,-3.4044,-3.4065,-3.4044,-3.4151,-3.4179,-3.4267,-3.4292,-3.4314,-3.4331,-3.4305,-3.4414,-3.4425,-3.4434,-3.4469,-3.4483,-3.432,-3.432,-3.432,-3.432,0,-3.3866,-3.392,-3.3964,-3.4018,-3.4052,-3.4112,-3.4126,-3.416,-3.4159,-3.4174,-3.4248,-3.428,-3.4334,-3.4355,-3.4355,-3.4443,-3.4431,-3.4412,-3.4375,-3.4451,-3.4484,-3.4497,-3.4324,-3.4323,-3.4323,-3.4322,0,0,-3.3982,-3.4036,-3.4053,-3.4076,-3.4121,-3.4163,-3.4222,-3.4274,-3.4303,-3.4341,-3.4392,-3.4464,-3.4446,-3.4477,-3.448,-3.4521,-3.4599,-3.4497,-3.4498,-3.4515,-3.4699,-3.4714,-3.473,-3.4592,-3.4595,-3.4597,-3.4696,0,-3.4078,-3.4182,-3.4187,-3.4282,-3.4331,-3.4319,-3.437,-3.4403,-3.4418,-3.4463,-3.448,-3.4531,-3.4504,-3.4522,-3.4561,-3.4581,-3.4637,-3.4574,-3.464,-3.4642,-3.4631,-3.4747,-3.4763,-3.4855,-3.4709,-3.4711,-3.4713,0,-3.4205,-3.4246,-3.4345,-3.4382,-3.4403,-3.4449,-3.4497,-3.454,-3.4577,-3.4585,-3.4618,-3.4615,-3.4675,-3.4635,-3.4719,-3.4676,-3.4703,-3.4717,-3.4721,-3.4728,-3.4683,-3.4759,-3.4884,-3.4899,-3.4733,-3.4732,-3.473,0,-3.4281,-3.4361,-3.4431,-3.4451,-3.4496,-3.4529,-3.4549,-3.4583,-3.4614,-3.4655,-3.4675,-3.4724,-3.4751,-3.4788,-3.4798,-3.4768,-3.4882,-3.4843,-3.4891,-3.4891,-3.4918,-3.4916,-3.5051,-3.4933,-3.4933,-3.4933,-3.4932,0,-3.4389,-3.445,-3.4465,-3.4509,-3.4577,-3.4582,-3.4649,-3.4667,-3.4698,-3.4744,-3.4736,-3.478,-3.479,-3.4836,-3.4844,-3.4913,-3.4925,-3.4933,-3.4935,-3.4935,-3.4934,-3.4954,-3.4948,-3.4936,-3.4935,-3.4935,-3.4934,0,-3.4486,-3.4499,-3.4574,-3.4609,-3.4619,-3.4668,-3.4698,-3.474,-3.4753,-3.4812,-3.4826,-3.4847,-3.49,-3.4913,-3.4978,-3.4983,-3.5064,-3.5059,-3.5052,-3.5052,-3.51,-3.5096,-3.5253,-3.5274,-3.5142,-3.5143,-3.5144,0,-3.4555,-3.4601,-3.4641,-3.4671,-3.4692,-3.4741,-3.4772,-3.4778,-3.4811,-3.4856,-3.4892,-3.4944,-3.4986,-3.5072,-3.5094,-3.5143,-3.5139,-3.5191,-3.5147,-3.5145,-3.5141,-3.5139,-3.5144,-3.52,-3.5202,-3.5203,-3.5204,0,-3.4675,-3.4679,-3.4723,-3.4769,-3.4806,-3.4843,-3.4878,-3.4904,-3.4915,-3.4952,-3.5006,-3.5038,-3.5103,-3.5155,-3.5204,-3.5225,-3.5217,-3.5217,-3.5231,-3.5232,-3.5226,-3.5231,-3.5076,-3.5214,-3.5213,-3.5212,-3.5211,-3.5211,-3.4761,-3.4802,-3.4836,-3.4885,-3.4912,-3.4945,-3.4985,-3.5003,-3.5048,-3.51,-3.5101,-3.516,-3.5195,-3.526,-3.5284,-3.533,-3.5314,-3.5335,-3.534,-3.5345,-3.535,-3.5217,-3.5339,-3.5339,-3.5338,-3.5338,-3.5338,0,-3.4882,-3.4903,-3.4948,-3.4997,-3.5036,-3.5023,-3.5061,-3.5094,-3.5146,-3.5179,-3.522,-3.5282,-3.5332,-3.5357,-3.5407,-3.5439,-3.5436,-3.5452,-3.545,-3.5456,-3.5361,-3.5344,-3.5453,-3.5453,-3.5453,-3.5453,-3.5453,-3.5453,-3.495,-3.5018,-3.5025,-3.5107,-3.5127,-3.5184,-3.5207,-3.5237,-3.5263,-3.5333,-3.5374,-3.5389,-3.5419,-3.547,-3.5516,-3.5521,-3.5541,-3.5559,-3.5563,-3.5474,-3.5462,-3.5451,-3.5435,-3.5562,-3.5563,-3.5654,-3.5655,-3.5655]}]]